Regional Weather Roundup
Issued by NWS Kansas City/Pleasant Hill, MO

Home | Current Version | Previous Version | Graphics & Text | Print | Product List | Glossary Off
Versions: 1 2 3 4 5 6 7 8 9 10 11 12 13 14 15 16 17 18 19 20 21 22 23 24 25 26 27 28 29 30 31 32 33 34 35 36 37 38 39 40 41 42 43 44 45 46 47 48 49 50

000
ASUS43 KEAX 280710
RWREAX

WEATHER ROUNDUP FOR EASTERN KANSAS AND NORTHWEST MISSOURI
NATIONAL WEATHER SERVICE KANSAS CITY/PLEASANT HILL MO
200 AM CDT WED JUN 28 2017

KSZ040-057-103>105-MOZ028-029-037-043-280800-
...KANSAS CITY METROPOLITAN AREA...

CITY           SKY/WX    TMP DP  RH WIND       PRES   REMARKS
K.C. INTL      MOCLDY    73  64  73 S18G26    29.86F
K.C. DOWNTOWN  CLOUDY    75  65  70 S16G24    29.87S
LEES SUMMIT    CLEAR     73  65  75 S16       29.90R
OLATHE - IXD   CLEAR     73  64  73 S15G21    29.89S
OLATHE - OJC   CLEAR     72  65  78 S14       29.89R
LAWRENCE       PTCLDY    74  66  76 SE14G23   29.85F

$$

MOZ001>008-011>017-020>025-030>033-038>040-044>046-053-054-280800-
...NORTHERN AND CENTRAL MISSOURI...

CITY           SKY/WX    TMP DP  RH WIND       PRES   REMARKS
ST. JOSEPH     MOCLDY    74  66  76 S13       29.83F
MOSBY          CLOUDY    72  63  73 S7        29.88F
WARRENSBURG    CLEAR     72  63  73 S10G16    29.92R
WHITEMAN AFB   PTCLDY    71  71 100 S12       29.92R
CLINTON        PTCLDY    72  63  73 S12       29.94R
SEDALIA        CLOUDY    72  66  81 S13       29.94F
WARSAW         NOT AVBL
CHILLICOTHE      N/A     73  65  75 S8        29.89S
KIRKSVILLE     CLOUDY    68  61  78 S10       29.92F

$$

MOZ041-047>049-056>058-063>065-088>090-097-280800-
...EASTERN AND SOUTHERN MISSOURI...

CITY           SKY/WX    TMP DP  RH WIND       PRES   REMARKS
ST. LOUIS INTL CLEAR     71  55  56 S8        30.04S
SPIRIT OF STL  CLEAR     68  59  73 SE5       30.02S
COLUMBIA       CLEAR     69  64  84 S12       29.96F
JEFFERSON CITY CLEAR     71  63  75 SE10      29.95F
ROLLA          CLEAR     66  63  90 S12       30.00F
OSAGE BEACH    CLEAR     68  63  84 S9        29.97F
SPRINGFIELD    CLEAR     69  64  84 S15       29.98F
BRANSON        CLEAR     64  63  94 SE7       30.03F
JOPLIN         CLEAR     73  64  73 S13       29.94F
WEST PLAINS    CLEAR     65  62  90 S3        30.07S

$$

IAZ060-094-KSZ022-034>040-054-083-096-NEZ052-066-093-280800-
...KANSAS...SOUTHEAST NEBRASKA AND IOWA...

CITY           SKY/WX    TMP DP  RH WIND       PRES   REMARKS
TOPEKA         CLOUDY    76  66  71 S12       29.83F
MANHATTAN      MOCLDY    77  66  68 S20G29    29.77F
EMPORIA        CLOUDY    73  65  75 S18G25    29.87S
CHANUTE          N/A    N/A N/A N/A MISG      29.91R
WICHITA        PTCLDY    77  67  71 S20       29.83F
OMAHA          TSTM      75  66  73 S16G25    29.77R
LINCOLN        TSTM      70  63  78 W8G38     29.77F
FALLS CITY     CLOUDY    75  64  68 S16G29    29.76F
LAMONI         MOCLDY    70  64  81 S10       29.85S
DES MOINES     CLOUDY    72  62  71 S18G25    29.79F

$$




USA.gov is the U.S. government's official web portal to all federal, state and local government web resources and services.